owner,sensor,date,latitude,longitude,vertical_datum,sea_water_practical_salinity,qcFlag 
SCCF RECON,ioos:station:SCCF:56:1,2015-06-01T00:00:00Z,26.4645,-82.1044,1.0,30.84,1111122 
SCCF RECON,ioos:station:SCCF:56:1,2015-06-01T01:00:00Z,26.4645,-82.1044,1.0,30.58,1111122 
SCCF RECON,ioos:station:SCCF:56:1,2015-06-01T02:00:00Z,26.4645,-82.1044,1.0,30.41,1111122 
SCCF RECON,ioos:station:SCCF:56:1,2015-06-01T03:00:00Z,26.4645,-82.1044,1.0,30.35,1111122 
SCCF RECON,ioos:station:SCCF:56:1,2015-06-01T04:00:00Z,26.4645,-82.1044,1.0,30.37,1111122 
SCCF RECON,ioos:station:SCCF:56:1,2015-06-01T05:00:00Z,26.4645,-82.1044,1.0,30.41,1111122 
SCCF RECON,ioos:station:SCCF:56:1,2015-06-01T06:00:00Z,26.4645,-82.1044,1.0,30.35,1111122 
SCCF RECON,ioos:station:SCCF:56:1,2015-06-01T07:00:00Z,26.4645,-82.1044,1.0,30.36,1111122 
SCCF RECON,ioos:station:SCCF:56:1,2015-06-01T08:00:00Z,26.4645,-82.1044,1.0,30.37,1111122 
SCCF RECON,ioos:station:SCCF:56:1,2015-06-01T09:00:00Z,26.4645,-82.1044,1.0,30.43,1111122 
SCCF RECON,ioos:station:SCCF:56:1,2015-06-01T10:00:00Z,26.4645,-82.1044,1.0,30.46,1111122 
SCCF RECON,ioos:station:SCCF:56:1,2015-06-01T11:00:00Z,26.4645,-82.1044,1.0,30.47,1111122 
SCCF RECON,ioos:station:SCCF:56:1,2015-06-01T12:00:00Z,26.4645,-82.1044,1.0,30.42,1111122 
SCCF RECON,ioos:station:SCCF:56:1,2015-06-01T13:00:00Z,26.4645,-82.1044,1.0,30.38,1111122 
SCCF RECON,ioos:station:SCCF:56:1,2015-06-01T14:00:00Z,26.4645,-82.1044,1.0,30.39,1111122 
SCCF RECON,ioos:station:SCCF:56:1,2015-06-01T15:00:00Z,26.4645,-82.1044,1.0,30.41,1111122 
SCCF RECON,ioos:station:SCCF:56:1,2015-06-01T16:00:00Z,26.4645,-82.1044,1.0,30.42,1111122 
SCCF RECON,ioos:station:SCCF:56:1,2015-06-01T17:00:00Z,26.4645,-82.1044,1.0,30.44,1111122 
SCCF RECON,ioos:station:SCCF:56:1,2015-06-01T18:00:00Z,26.4645,-82.1044,1.0,30.43,1111122 
SCCF RECON,ioos:station:SCCF:56:1,2015-06-01T19:00:00Z,26.4645,-82.1044,1.0,30.44,1111122 
SCCF RECON,ioos:station:SCCF:56:1,2015-06-01T20:00:00Z,26.4645,-82.1044,1.0,30.49,1111122 
SCCF RECON,ioos:station:SCCF:56:1,2015-06-01T21:00:00Z,26.4645,-82.1044,1.0,30.54,1111122 
SCCF RECON,ioos:station:SCCF:56:1,2015-06-01T22:00:00Z,26.4645,-82.1044,1.0,30.59,1111122 
SCCF RECON,ioos:station:SCCF:56:1,2015-06-01T23:00:00Z,26.4645,-82.1044,1.0,30.69,1111122 
SCCF RECON,ioos:station:SCCF:56:1,2015-06-02T00:00:00Z,26.4645,-82.1044,1.0,30.71,1111122 
SCCF RECON,ioos:station:SCCF:56:1,2015-06-02T01:00:00Z,26.4645,-82.1044,1.0,30.74,1111122 
SCCF RECON,ioos:station:SCCF:56:1,2015-06-02T02:00:00Z,26.4645,-82.1044,1.0,30.78,1111122 
SCCF RECON,ioos:station:SCCF:56:1,2015-06-02T03:00:00Z,26.4645,-82.1044,1.0,30.79,1111122 
SCCF RECON,ioos:station:SCCF:56:1,2015-06-02T04:00:00Z,26.4645,-82.1044,1.0,30.8,1111122 
SCCF RECON,ioos:station:SCCF:56:1,2015-06-02T05:00:00Z,26.4645,-82.1044,1.0,30.71,1111122 
SCCF RECON,ioos:station:SCCF:56:1,2015-06-02T06:00:00Z,26.4645,-82.1044,1.0,30.77,1111122 
SCCF RECON,ioos:station:SCCF:56:1,2015-06-02T07:00:00Z,26.4645,-82.1044,1.0,30.77,1111122 
SCCF RECON,ioos:station:SCCF:56:1,2015-06-02T08:00:00Z,26.4645,-82.1044,1.0,30.81,1111122 
SCCF RECON,ioos:station:SCCF:56:1,2015-06-02T09:00:00Z,26.4645,-82.1044,1.0,30.84,1111122 
SCCF RECON,ioos:station:SCCF:56:1,2015-06-02T10:00:00Z,26.4645,-82.1044,1.0,30.87,1111122 
SCCF RECON,ioos:station:SCCF:56:1,2015-06-02T11:00:00Z,26.4645,-82.1044,1.0,30.87,1111122 
SCCF RECON,ioos:station:SCCF:56:1,2015-06-02T12:00:00Z,26.4645,-82.1044,1.0,30.86,1111122 
SCCF RECON,ioos:station:SCCF:56:1,2015-06-02T13:00:00Z,26.4645,-82.1044,1.0,30.83,1111122 
SCCF RECON,ioos:station:SCCF:56:1,2015-06-02T14:00:00Z,26.4645,-82.1044,1.0,30.8,1111122 
SCCF RECON,ioos:station:SCCF:56:1,2015-06-02T15:00:00Z,26.4645,-82.1044,1.0,30.85,1111122 
SCCF RECON,ioos:station:SCCF:56:1,2015-06-02T16:00:00Z,26.4645,-82.1044,1.0,31.1,1111122 
SCCF RECON,ioos:station:SCCF:56:1,2015-06-02T17:00:00Z,26.4645,-82.1044,1.0,31.16,1111122 
SCCF RECON,ioos:station:SCCF:56:1,2015-06-02T18:00:00Z,26.4645,-82.1044,1.0,31.04,1111122 
SCCF RECON,ioos:station:SCCF:56:1,2015-06-02T19:00:00Z,26.4645,-82.1044,1.0,31.07,1111122 
SCCF RECON,ioos:station:SCCF:56:1,2015-06-02T20:00:00Z,26.4645,-82.1044,1.0,31.03,1111122 
SCCF RECON,ioos:station:SCCF:56:1,2015-06-02T21:00:00Z,26.4645,-82.1044,1.0,30.99,1111122 
SCCF RECON,ioos:station:SCCF:56:1,2015-06-02T22:00:00Z,26.4645,-82.1044,1.0,30.99,1111122 
SCCF RECON,ioos:station:SCCF:56:1,2015-06-02T23:00:00Z,26.4645,-82.1044,1.0,30.79,1111122 
SCCF RECON,ioos:station:SCCF:56:1,2015-06-03T00:00:00Z,26.4645,-82.1044,1.0,30.01,1111122 
SCCF RECON,ioos:station:SCCF:56:1,2015-06-03T01:00:00Z,26.4645,-82.1044,1.0,29.36,1111122 
SCCF RECON,ioos:station:SCCF:56:1,2015-06-03T02:00:00Z,26.4645,-82.1044,1.0,29.11,1111122 
SCCF RECON,ioos:station:SCCF:56:1,2015-06-03T03:00:00Z,26.4645,-82.1044,1.0,30.01,1111122 
SCCF RECON,ioos:station:SCCF:56:1,2015-06-03T04:00:00Z,26.4645,-82.1044,1.0,30.17,1111122 
SCCF RECON,ioos:station:SCCF:56:1,2015-06-03T05:00:00Z,26.4645,-82.1044,1.0,30.11,1111122 
SCCF RECON,ioos:station:SCCF:56:1,2015-06-03T06:00:00Z,26.4645,-82.1044,1.0,30.37,1111122 
SCCF RECON,ioos:station:SCCF:56:1,2015-06-03T07:00:00Z,26.4645,-82.1044,1.0,30.66,1111122 
SCCF RECON,ioos:station:SCCF:56:1,2015-06-03T08:00:00Z,26.4645,-82.1044,1.0,30.64,1111122 
SCCF RECON,ioos:station:SCCF:56:1,2015-06-03T09:00:00Z,26.4645,-82.1044,1.0,30.59,1111122 
SCCF RECON,ioos:station:SCCF:56:1,2015-06-03T10:00:00Z,26.4645,-82.1044,1.0,30.3,1111122 
SCCF RECON,ioos:station:SCCF:56:1,2015-06-03T11:00:00Z,26.4645,-82.1044,1.0,30.17,1111122 
SCCF RECON,ioos:station:SCCF:56:1,2015-06-03T12:00:00Z,26.4645,-82.1044,1.0,30.16,1111122 
SCCF RECON,ioos:station:SCCF:56:1,2015-06-03T13:00:00Z,26.4645,-82.1044,1.0,30.24,1111122 
SCCF RECON,ioos:station:SCCF:56:1,2015-06-03T14:00:00Z,26.4645,-82.1044,1.0,30.53,1111122 
SCCF RECON,ioos:station:SCCF:56:1,2015-06-03T15:00:00Z,26.4645,-82.1044,1.0,30.68,1111122 
SCCF RECON,ioos:station:SCCF:56:1,2015-06-03T16:00:00Z,26.4645,-82.1044,1.0,30.84,1111122 
SCCF RECON,ioos:station:SCCF:56:1,2015-06-03T17:00:00Z,26.4645,-82.1044,1.0,30.97,1111122 
SCCF RECON,ioos:station:SCCF:56:1,2015-06-03T18:00:00Z,26.4645,-82.1044,1.0,31.0,1111122 
SCCF RECON,ioos:station:SCCF:56:1,2015-06-03T19:00:00Z,26.4645,-82.1044,1.0,30.71,1111122 
SCCF RECON,ioos:station:SCCF:56:1,2015-06-03T20:00:00Z,26.4645,-82.1044,1.0,30.78,1111122 
SCCF RECON,ioos:station:SCCF:56:1,2015-06-03T21:00:00Z,26.4645,-82.1044,1.0,30.63,1111122 
SCCF RECON,ioos:station:SCCF:56:1,2015-06-03T22:00:00Z,26.4645,-82.1044,1.0,30.44,1111122 
SCCF RECON,ioos:station:SCCF:56:1,2015-06-03T23:00:00Z,26.4645,-82.1044,1.0,30.25,1111122 
SCCF RECON,ioos:station:SCCF:56:1,2015-06-04T00:00:00Z,26.4645,-82.1044,1.0,30.1,1111122 
SCCF RECON,ioos:station:SCCF:56:1,2015-06-04T01:00:00Z,26.4645,-82.1044,1.0,30.0,1111122 
SCCF RECON,ioos:station:SCCF:56:1,2015-06-04T02:00:00Z,26.4645,-82.1044,1.0,29.92,1111122 
SCCF RECON,ioos:station:SCCF:56:1,2015-06-04T03:00:00Z,26.4645,-82.1044,1.0,30.1,1111122 
SCCF RECON,ioos:station:SCCF:56:1,2015-06-04T04:00:00Z,26.4645,-82.1044,1.0,30.67,1111122 
SCCF RECON,ioos:station:SCCF:56:1,2015-06-04T05:00:00Z,26.4645,-82.1044,1.0,30.56,1111122 
SCCF RECON,ioos:station:SCCF:56:1,2015-06-04T06:00:00Z,26.4645,-82.1044,1.0,30.77,1111122 
SCCF RECON,ioos:station:SCCF:56:1,2015-06-04T07:00:00Z,26.4645,-82.1044,1.0,30.87,1111122 
SCCF RECON,ioos:station:SCCF:56:1,2015-06-04T08:00:00Z,26.4645,-82.1044,1.0,30.95,1111122 
SCCF RECON,ioos:station:SCCF:56:1,2015-06-04T09:00:00Z,26.4645,-82.1044,1.0,30.96,1111122 
SCCF RECON,ioos:station:SCCF:56:1,2015-06-04T10:00:00Z,26.4645,-82.1044,1.0,30.95,1111122 
SCCF RECON,ioos:station:SCCF:56:1,2015-06-04T11:00:00Z,26.4645,-82.1044,1.0,30.85,1111122 
SCCF RECON,ioos:station:SCCF:56:1,2015-06-04T12:00:00Z,26.4645,-82.1044,1.0,30.85,1111122 
SCCF RECON,ioos:station:SCCF:56:1,2015-06-04T13:00:00Z,26.4645,-82.1044,1.0,30.8,1111122 
SCCF RECON,ioos:station:SCCF:56:1,2015-06-04T14:00:00Z,26.4645,-82.1044,1.0,30.88,1111122 
SCCF RECON,ioos:station:SCCF:56:1,2015-06-04T15:00:00Z,26.4645,-82.1044,1.0,30.93,1111122 
SCCF RECON,ioos:station:SCCF:56:1,2015-06-04T16:00:00Z,26.4645,-82.1044,1.0,30.89,1111122 
SCCF RECON,ioos:station:SCCF:56:1,2015-06-04T17:00:00Z,26.4645,-82.1044,1.0,30.89,1111122 
SCCF RECON,ioos:station:SCCF:56:1,2015-06-04T18:00:00Z,26.4645,-82.1044,1.0,30.97,1111122 
SCCF RECON,ioos:station:SCCF:56:1,2015-06-04T19:00:00Z,26.4645,-82.1044,1.0,30.95,1111122 
SCCF RECON,ioos:station:SCCF:56:1,2015-06-04T20:00:00Z,26.4645,-82.1044,1.0,30.95,1111122 
SCCF RECON,ioos:station:SCCF:56:1,2015-06-04T21:00:00Z,26.4645,-82.1044,1.0,30.92,1111122 
SCCF RECON,ioos:station:SCCF:56:1,2015-06-04T22:00:00Z,26.4645,-82.1044,1.0,30.87,1111122 
SCCF RECON,ioos:station:SCCF:56:1,2015-06-04T23:00:00Z,26.4645,-82.1044,1.0,30.83,1111122 
SCCF RECON,ioos:station:SCCF:56:1,2015-06-05T00:00:00Z,26.4645,-82.1044,1.0,30.8,1111122 
SCCF RECON,ioos:station:SCCF:56:1,2015-06-05T01:00:00Z,26.4645,-82.1044,1.0,30.77,1111122 
SCCF RECON,ioos:station:SCCF:56:1,2015-06-05T02:00:00Z,26.4645,-82.1044,1.0,30.73,1111122 
SCCF RECON,ioos:station:SCCF:56:1,2015-06-05T03:00:00Z,26.4645,-82.1044,1.0,30.7,1111122 
SCCF RECON,ioos:station:SCCF:56:1,2015-06-05T04:00:00Z,26.4645,-82.1044,1.0,30.83,1111122 
SCCF RECON,ioos:station:SCCF:56:1,2015-06-05T05:00:00Z,26.4645,-82.1044,1.0,30.9,1111122 
SCCF RECON,ioos:station:SCCF:56:1,2015-06-05T06:00:00Z,26.4645,-82.1044,1.0,30.95,1111122 
SCCF RECON,ioos:station:SCCF:56:1,2015-06-05T07:00:00Z,26.4645,-82.1044,1.0,30.95,1111122 
SCCF RECON,ioos:station:SCCF:56:1,2015-06-05T08:00:00Z,26.4645,-82.1044,1.0,31.01,1111122 
SCCF RECON,ioos:station:SCCF:56:1,2015-06-05T09:00:00Z,26.4645,-82.1044,1.0,30.99,1111122 
SCCF RECON,ioos:station:SCCF:56:1,2015-06-05T10:00:00Z,26.4645,-82.1044,1.0,31.0,1111122 
SCCF RECON,ioos:station:SCCF:56:1,2015-06-05T11:00:00Z,26.4645,-82.1044,1.0,31.02,1111122 
SCCF RECON,ioos:station:SCCF:56:1,2015-06-05T12:00:00Z,26.4645,-82.1044,1.0,31.02,1111122 
SCCF RECON,ioos:station:SCCF:56:1,2015-06-05T13:00:00Z,26.4645,-82.1044,1.0,31.02,1111122 
SCCF RECON,ioos:station:SCCF:56:1,2015-06-05T14:00:00Z,26.4645,-82.1044,1.0,31.02,1111122 
SCCF RECON,ioos:station:SCCF:56:1,2015-06-05T15:00:00Z,26.4645,-82.1044,1.0,31.03,1111122 
SCCF RECON,ioos:station:SCCF:56:1,2015-06-05T16:00:00Z,26.4645,-82.1044,1.0,31.01,1111122 
SCCF RECON,ioos:station:SCCF:56:1,2015-06-05T17:00:00Z,26.4645,-82.1044,1.0,30.98,1111122 
SCCF RECON,ioos:station:SCCF:56:1,2015-06-05T18:00:00Z,26.4645,-82.1044,1.0,30.95,1111122 
SCCF RECON,ioos:station:SCCF:56:1,2015-06-05T19:00:00Z,26.4645,-82.1044,1.0,31.01,1111122 
SCCF RECON,ioos:station:SCCF:56:1,2015-06-05T20:00:00Z,26.4645,-82.1044,1.0,31.0,1111122 
SCCF RECON,ioos:station:SCCF:56:1,2015-06-05T21:00:00Z,26.4645,-82.1044,1.0,31.01,1111122 
SCCF RECON,ioos:station:SCCF:56:1,2015-06-05T22:00:00Z,26.4645,-82.1044,1.0,30.99,1111122 
SCCF RECON,ioos:station:SCCF:56:1,2015-06-05T23:00:00Z,26.4645,-82.1044,1.0,31.0,1111122 
SCCF RECON,ioos:station:SCCF:56:1,2015-06-06T00:00:00Z,26.4645,-82.1044,1.0,31.0,1111122 
SCCF RECON,ioos:station:SCCF:56:1,2015-06-06T01:00:00Z,26.4645,-82.1044,1.0,31.02,1111122 
SCCF RECON,ioos:station:SCCF:56:1,2015-06-06T02:00:00Z,26.4645,-82.1044,1.0,31.04,1111122 
SCCF RECON,ioos:station:SCCF:56:1,2015-06-06T03:00:00Z,26.4645,-82.1044,1.0,31.05,1111122 
SCCF RECON,ioos:station:SCCF:56:1,2015-06-06T04:00:00Z,26.4645,-82.1044,1.0,31.07,1111122 
SCCF RECON,ioos:station:SCCF:56:1,2015-06-06T05:00:00Z,26.4645,-82.1044,1.0,31.09,1111122 
SCCF RECON,ioos:station:SCCF:56:1,2015-06-06T06:00:00Z,26.4645,-82.1044,1.0,31.15,1111122 
SCCF RECON,ioos:station:SCCF:56:1,2015-06-06T07:00:00Z,26.4645,-82.1044,1.0,31.13,1111122 
SCCF RECON,ioos:station:SCCF:56:1,2015-06-06T08:00:00Z,26.4645,-82.1044,1.0,31.07,1111122 
SCCF RECON,ioos:station:SCCF:56:1,2015-06-06T09:00:00Z,26.4645,-82.1044,1.0,30.97,1111122 
SCCF RECON,ioos:station:SCCF:56:1,2015-06-06T10:00:00Z,26.4645,-82.1044,1.0,30.98,1111122 
SCCF RECON,ioos:station:SCCF:56:1,2015-06-06T11:00:00Z,26.4645,-82.1044,1.0,30.99,1111122 
SCCF RECON,ioos:station:SCCF:56:1,2015-06-06T12:00:00Z,26.4645,-82.1044,1.0,31.04,1111122 
SCCF RECON,ioos:station:SCCF:56:1,2015-06-06T13:00:00Z,26.4645,-82.1044,1.0,31.08,1111122 
SCCF RECON,ioos:station:SCCF:56:1,2015-06-06T14:00:00Z,26.4645,-82.1044,1.0,31.12,1111122 
SCCF RECON,ioos:station:SCCF:56:1,2015-06-06T15:00:00Z,26.4645,-82.1044,1.0,31.11,1111122 
SCCF RECON,ioos:station:SCCF:56:1,2015-06-06T16:00:00Z,26.4645,-82.1044,1.0,31.08,1111122 
SCCF RECON,ioos:station:SCCF:56:1,2015-06-06T17:00:00Z,26.4645,-82.1044,1.0,31.03,1111122 
SCCF RECON,ioos:station:SCCF:56:1,2015-06-06T18:00:00Z,26.4645,-82.1044,1.0,30.99,1111122 
SCCF RECON,ioos:station:SCCF:56:1,2015-06-06T19:00:00Z,26.4645,-82.1044,1.0,30.72,1111122 
SCCF RECON,ioos:station:SCCF:56:1,2015-06-06T20:00:00Z,26.4645,-82.1044,1.0,30.66,1111122 
SCCF RECON,ioos:station:SCCF:56:1,2015-06-06T21:00:00Z,26.4645,-82.1044,1.0,30.71,1111122 
SCCF RECON,ioos:station:SCCF:56:1,2015-06-06T22:00:00Z,26.4645,-82.1044,1.0,30.82,1111122 
SCCF RECON,ioos:station:SCCF:56:1,2015-06-06T23:00:00Z,26.4645,-82.1044,1.0,30.91,1111122 
SCCF RECON,ioos:station:SCCF:56:1,2015-06-07T00:00:00Z,26.4645,-82.1044,1.0,31.03,1111122 
SCCF RECON,ioos:station:SCCF:56:1,2015-06-07T01:00:00Z,26.4645,-82.1044,1.0,31.1,1111122 
SCCF RECON,ioos:station:SCCF:56:1,2015-06-07T02:00:00Z,26.4645,-82.1044,1.0,31.16,1111122 
SCCF RECON,ioos:station:SCCF:56:1,2015-06-07T03:00:00Z,26.4645,-82.1044,1.0,31.21,1111122 
SCCF RECON,ioos:station:SCCF:56:1,2015-06-07T04:00:00Z,26.4645,-82.1044,1.0,31.29,1111122 
SCCF RECON,ioos:station:SCCF:56:1,2015-06-07T05:00:00Z,26.4645,-82.1044,1.0,31.24,1111122 
SCCF RECON,ioos:station:SCCF:56:1,2015-06-07T06:00:00Z,26.4645,-82.1044,1.0,30.87,1111122 
SCCF RECON,ioos:station:SCCF:56:1,2015-06-07T07:00:00Z,26.4645,-82.1044,1.0,30.85,1111122 
SCCF RECON,ioos:station:SCCF:56:1,2015-06-07T08:00:00Z,26.4645,-82.1044,1.0,30.82,1111122 
SCCF RECON,ioos:station:SCCF:56:1,2015-06-07T09:00:00Z,26.4645,-82.1044,1.0,30.87,1111122 
SCCF RECON,ioos:station:SCCF:56:1,2015-06-07T10:00:00Z,26.4645,-82.1044,1.0,30.83,1111122 
SCCF RECON,ioos:station:SCCF:56:1,2015-06-07T11:00:00Z,26.4645,-82.1044,1.0,30.85,1111122 
SCCF RECON,ioos:station:SCCF:56:1,2015-06-07T12:00:00Z,26.4645,-82.1044,1.0,30.86,1111122 
SCCF RECON,ioos:station:SCCF:56:1,2015-06-07T13:00:00Z,26.4645,-82.1044,1.0,30.86,1111122 
SCCF RECON,ioos:station:SCCF:56:1,2015-06-07T14:00:00Z,26.4645,-82.1044,1.0,30.89,1111122 
SCCF RECON,ioos:station:SCCF:56:1,2015-06-07T15:00:00Z,26.4645,-82.1044,1.0,30.93,1111122 
SCCF RECON,ioos:station:SCCF:56:1,2015-06-07T16:00:00Z,26.4645,-82.1044,1.0,30.93,1111122 
SCCF RECON,ioos:station:SCCF:56:1,2015-06-07T17:00:00Z,26.4645,-82.1044,1.0,30.88,1111122 
SCCF RECON,ioos:station:SCCF:56:1,2015-06-07T18:00:00Z,26.4645,-82.1044,1.0,30.78,1111122 
SCCF RECON,ioos:station:SCCF:56:1,2015-06-07T19:00:00Z,26.4645,-82.1044,1.0,30.78,1111122 
SCCF RECON,ioos:station:SCCF:56:1,2015-06-07T20:00:00Z,26.4645,-82.1044,1.0,30.73,1111122 
SCCF RECON,ioos:station:SCCF:56:1,2015-06-07T21:00:00Z,26.4645,-82.1044,1.0,30.76,1111122 
SCCF RECON,ioos:station:SCCF:56:1,2015-06-07T22:00:00Z,26.4645,-82.1044,1.0,30.17,1111122 
SCCF RECON,ioos:station:SCCF:56:1,2015-06-07T23:00:00Z,26.4645,-82.1044,1.0,30.05,1111122 
SCCF RECON,ioos:station:SCCF:56:1,2015-06-08T00:00:00Z,26.4645,-82.1044,1.0,29.97,1111122 
SCCF RECON,ioos:station:SCCF:56:1,2015-06-08T01:00:00Z,26.4645,-82.1044,1.0,30.03,1111122 
SCCF RECON,ioos:station:SCCF:56:1,2015-06-08T02:00:00Z,26.4645,-82.1044,1.0,30.03,1111122 
SCCF RECON,ioos:station:SCCF:56:1,2015-06-08T03:00:00Z,26.4645,-82.1044,1.0,30.06,1111122 
SCCF RECON,ioos:station:SCCF:56:1,2015-06-08T04:00:00Z,26.4645,-82.1044,1.0,30.07,1111122 
SCCF RECON,ioos:station:SCCF:56:1,2015-06-08T05:00:00Z,26.4645,-82.1044,1.0,30.08,1111122 
SCCF RECON,ioos:station:SCCF:56:1,2015-06-08T06:00:00Z,26.4645,-82.1044,1.0,30.08,1111122 
SCCF RECON,ioos:station:SCCF:56:1,2015-06-08T07:00:00Z,26.4645,-82.1044,1.0,30.18,1111122 
SCCF RECON,ioos:station:SCCF:56:1,2015-06-08T08:00:00Z,26.4645,-82.1044,1.0,30.23,1111122 
SCCF RECON,ioos:station:SCCF:56:1,2015-06-08T09:00:00Z,26.4645,-82.1044,1.0,30.21,1111122 
SCCF RECON,ioos:station:SCCF:56:1,2015-06-08T10:00:00Z,26.4645,-82.1044,1.0,30.38,1111122 
SCCF RECON,ioos:station:SCCF:56:1,2015-06-08T11:00:00Z,26.4645,-82.1044,1.0,30.47,1111122 
SCCF RECON,ioos:station:SCCF:56:1,2015-06-08T12:00:00Z,26.4645,-82.1044,1.0,30.41,1111122 
SCCF RECON,ioos:station:SCCF:56:1,2015-06-08T13:00:00Z,26.4645,-82.1044,1.0,30.47,1111122 
SCCF RECON,ioos:station:SCCF:56:1,2015-06-08T14:00:00Z,26.4645,-82.1044,1.0,30.43,1111122 
SCCF RECON,ioos:station:SCCF:56:1,2015-06-08T15:00:00Z,26.4645,-82.1044,1.0,30.42,1111122 
SCCF RECON,ioos:station:SCCF:56:1,2015-06-08T16:00:00Z,26.4645,-82.1044,1.0,30.4,1111122 
SCCF RECON,ioos:station:SCCF:56:1,2015-06-08T17:00:00Z,26.4645,-82.1044,1.0,30.42,1111122 
SCCF RECON,ioos:station:SCCF:56:1,2015-06-08T18:00:00Z,26.4645,-82.1044,1.0,30.41,1111122 
SCCF RECON,ioos:station:SCCF:56:1,2015-06-08T19:00:00Z,26.4645,-82.1044,1.0,30.46,1111122 
SCCF RECON,ioos:station:SCCF:56:1,2015-06-08T20:00:00Z,26.4645,-82.1044,1.0,30.37,1111122 
SCCF RECON,ioos:station:SCCF:56:1,2015-06-08T21:00:00Z,26.4645,-82.1044,1.0,30.38,1111122 
SCCF RECON,ioos:station:SCCF:56:1,2015-06-08T22:00:00Z,26.4645,-82.1044,1.0,30.4,1111122 
SCCF RECON,ioos:station:SCCF:56:1,2015-06-08T23:00:00Z,26.4645,-82.1044,1.0,30.4,1111122 
SCCF RECON,ioos:station:SCCF:56:1,2015-06-09T00:00:00Z,26.4645,-82.1044,1.0,30.39,1111122 
SCCF RECON,ioos:station:SCCF:56:1,2015-06-09T01:00:00Z,26.4645,-82.1044,1.0,30.4,1111122 
SCCF RECON,ioos:station:SCCF:56:1,2015-06-09T02:00:00Z,26.4645,-82.1044,1.0,30.42,1111122 
SCCF RECON,ioos:station:SCCF:56:1,2015-06-09T03:00:00Z,26.4645,-82.1044,1.0,30.46,1111122 
SCCF RECON,ioos:station:SCCF:56:1,2015-06-09T04:00:00Z,26.4645,-82.1044,1.0,30.47,1111122 
SCCF RECON,ioos:station:SCCF:56:1,2015-06-09T05:00:00Z,26.4645,-82.1044,1.0,30.45,1111122 
SCCF RECON,ioos:station:SCCF:56:1,2015-06-09T06:00:00Z,26.4645,-82.1044,1.0,30.43,1111122 
SCCF RECON,ioos:station:SCCF:56:1,2015-06-09T07:00:00Z,26.4645,-82.1044,1.0,30.43,1111122 
SCCF RECON,ioos:station:SCCF:56:1,2015-06-09T08:00:00Z,26.4645,-82.1044,1.0,30.47,1111122 
SCCF RECON,ioos:station:SCCF:56:1,2015-06-09T09:00:00Z,26.4645,-82.1044,1.0,30.48,1111122 
SCCF RECON,ioos:station:SCCF:56:1,2015-06-09T10:00:00Z,26.4645,-82.1044,1.0,30.47,1111122 
SCCF RECON,ioos:station:SCCF:56:1,2015-06-09T11:00:00Z,26.4645,-82.1044,1.0,30.48,1111122 
SCCF RECON,ioos:station:SCCF:56:1,2015-06-09T12:00:00Z,26.4645,-82.1044,1.0,30.46,1111122 
SCCF RECON,ioos:station:SCCF:56:1,2015-06-09T13:00:00Z,26.4645,-82.1044,1.0,30.49,1111122 
SCCF RECON,ioos:station:SCCF:56:1,2015-06-09T14:00:00Z,26.4645,-82.1044,1.0,30.5,1111122 
SCCF RECON,ioos:station:SCCF:56:1,2015-06-09T15:00:00Z,26.4645,-82.1044,1.0,30.54,1111122 
SCCF RECON,ioos:station:SCCF:56:1,2015-06-09T16:00:00Z,26.4645,-82.1044,1.0,30.54,1111122 
SCCF RECON,ioos:station:SCCF:56:1,2015-06-09T17:00:00Z,26.4645,-82.1044,1.0,30.54,1111122 
SCCF RECON,ioos:station:SCCF:56:1,2015-06-09T18:00:00Z,26.4645,-82.1044,1.0,30.55,1111122 
SCCF RECON,ioos:station:SCCF:56:1,2015-06-09T19:00:00Z,26.4645,-82.1044,1.0,30.55,1111122 
SCCF RECON,ioos:station:SCCF:56:1,2015-06-09T20:00:00Z,26.4645,-82.1044,1.0,30.54,1111122 
SCCF RECON,ioos:station:SCCF:56:1,2015-06-09T21:00:00Z,26.4645,-82.1044,1.0,30.44,1111122 
SCCF RECON,ioos:station:SCCF:56:1,2015-06-09T22:00:00Z,26.4645,-82.1044,1.0,30.41,1111122 
SCCF RECON,ioos:station:SCCF:56:1,2015-06-09T23:00:00Z,26.4645,-82.1044,1.0,30.42,1111122 
SCCF RECON,ioos:station:SCCF:56:1,2015-06-10T00:00:00Z,26.4645,-82.1044,1.0,30.43,1111122 
SCCF RECON,ioos:station:SCCF:56:1,2015-06-10T01:00:00Z,26.4645,-82.1044,1.0,30.49,1111122 
SCCF RECON,ioos:station:SCCF:56:1,2015-06-10T02:00:00Z,26.4645,-82.1044,1.0,30.5,1111122 
SCCF RECON,ioos:station:SCCF:56:1,2015-06-10T03:00:00Z,26.4645,-82.1044,1.0,30.52,1111122 
SCCF RECON,ioos:station:SCCF:56:1,2015-06-10T04:00:00Z,26.4645,-82.1044,1.0,30.58,1111122 
SCCF RECON,ioos:station:SCCF:56:1,2015-06-10T05:00:00Z,26.4645,-82.1044,1.0,30.64,1111122 
SCCF RECON,ioos:station:SCCF:56:1,2015-06-10T06:00:00Z,26.4645,-82.1044,1.0,30.67,1111122 
SCCF RECON,ioos:station:SCCF:56:1,2015-06-10T07:00:00Z,26.4645,-82.1044,1.0,30.61,1111122 
SCCF RECON,ioos:station:SCCF:56:1,2015-06-10T08:00:00Z,26.4645,-82.1044,1.0,30.61,1111122 
SCCF RECON,ioos:station:SCCF:56:1,2015-06-10T09:00:00Z,26.4645,-82.1044,1.0,30.58,1111122 
SCCF RECON,ioos:station:SCCF:56:1,2015-06-10T10:00:00Z,26.4645,-82.1044,1.0,30.57,1111122 
SCCF RECON,ioos:station:SCCF:56:1,2015-06-10T11:00:00Z,26.4645,-82.1044,1.0,30.56,1111122 
SCCF RECON,ioos:station:SCCF:56:1,2015-06-10T12:00:00Z,26.4645,-82.1044,1.0,30.56,1111122 
SCCF RECON,ioos:station:SCCF:56:1,2015-06-10T13:00:00Z,26.4645,-82.1044,1.0,30.58,1111122 
SCCF RECON,ioos:station:SCCF:56:1,2015-06-10T14:00:00Z,26.4645,-82.1044,1.0,30.6,1111122 
SCCF RECON,ioos:station:SCCF:56:1,2015-06-10T15:00:00Z,26.4645,-82.1044,1.0,30.58,1111122 
SCCF RECON,ioos:station:SCCF:56:1,2015-06-10T16:00:00Z,26.4645,-82.1044,1.0,30.62,1111122 
SCCF RECON,ioos:station:SCCF:56:1,2015-06-10T17:00:00Z,26.4645,-82.1044,1.0,30.68,1111122 
SCCF RECON,ioos:station:SCCF:56:1,2015-06-10T18:00:00Z,26.4645,-82.1044,1.0,30.74,1111122 
SCCF RECON,ioos:station:SCCF:56:1,2015-06-10T19:00:00Z,26.4645,-82.1044,1.0,30.79,1111122 
SCCF RECON,ioos:station:SCCF:56:1,2015-06-10T20:00:00Z,26.4645,-82.1044,1.0,30.82,1111122 
SCCF RECON,ioos:station:SCCF:56:1,2015-06-10T21:00:00Z,26.4645,-82.1044,1.0,31.01,1111122 
SCCF RECON,ioos:station:SCCF:56:1,2015-06-10T22:00:00Z,26.4645,-82.1044,1.0,31.19,1111122 
SCCF RECON,ioos:station:SCCF:56:1,2015-06-10T23:00:00Z,26.4645,-82.1044,1.0,31.23,1111122 
SCCF RECON,ioos:station:SCCF:56:1,2015-06-11T00:00:00Z,26.4645,-82.1044,1.0,31.22,1111122 
SCCF RECON,ioos:station:SCCF:56:1,2015-06-11T01:00:00Z,26.4645,-82.1044,1.0,31.25,1111122 
SCCF RECON,ioos:station:SCCF:56:1,2015-06-11T02:00:00Z,26.4645,-82.1044,1.0,30.62,1111122 
SCCF RECON,ioos:station:SCCF:56:1,2015-06-11T03:00:00Z,26.4645,-82.1044,1.0,30.77,1111122 
SCCF RECON,ioos:station:SCCF:56:1,2015-06-11T04:00:00Z,26.4645,-82.1044,1.0,30.52,1111122 
SCCF RECON,ioos:station:SCCF:56:1,2015-06-11T05:00:00Z,26.4645,-82.1044,1.0,30.27,1111122 
SCCF RECON,ioos:station:SCCF:56:1,2015-06-11T06:00:00Z,26.4645,-82.1044,1.0,29.84,1111122 
SCCF RECON,ioos:station:SCCF:56:1,2015-06-11T07:00:00Z,26.4645,-82.1044,1.0,29.28,1111122 
SCCF RECON,ioos:station:SCCF:56:1,2015-06-11T08:00:00Z,26.4645,-82.1044,1.0,28.3,1111122 
SCCF RECON,ioos:station:SCCF:56:1,2015-06-11T09:00:00Z,26.4645,-82.1044,1.0,28.34,1111122 
SCCF RECON,ioos:station:SCCF:56:1,2015-06-11T10:00:00Z,26.4645,-82.1044,1.0,30.22,1111122 
SCCF RECON,ioos:station:SCCF:56:1,2015-06-11T11:00:00Z,26.4645,-82.1044,1.0,30.45,1111122 
SCCF RECON,ioos:station:SCCF:56:1,2015-06-11T12:00:00Z,26.4645,-82.1044,1.0,30.6,1111122 
SCCF RECON,ioos:station:SCCF:56:1,2015-06-11T13:00:00Z,26.4645,-82.1044,1.0,30.63,1111122 
SCCF RECON,ioos:station:SCCF:56:1,2015-06-11T14:00:00Z,26.4645,-82.1044,1.0,30.68,1111122 
SCCF RECON,ioos:station:SCCF:56:1,2015-06-11T15:00:00Z,26.4645,-82.1044,1.0,30.31,1111122 
SCCF RECON,ioos:station:SCCF:56:1,2015-06-11T16:00:00Z,26.4645,-82.1044,1.0,30.24,1111122 
SCCF RECON,ioos:station:SCCF:56:1,2015-06-11T17:00:00Z,26.4645,-82.1044,1.0,29.79,1111122 
SCCF RECON,ioos:station:SCCF:56:1,2015-06-11T18:00:00Z,26.4645,-82.1044,1.0,28.97,1111122 
SCCF RECON,ioos:station:SCCF:56:1,2015-06-11T19:00:00Z,26.4645,-82.1044,1.0,28.31,1111122 
SCCF RECON,ioos:station:SCCF:56:1,2015-06-11T20:00:00Z,26.4645,-82.1044,1.0,28.02,1111122 
SCCF RECON,ioos:station:SCCF:56:1,2015-06-11T21:00:00Z,26.4645,-82.1044,1.0,27.7,1111122 
SCCF RECON,ioos:station:SCCF:56:1,2015-06-11T22:00:00Z,26.4645,-82.1044,1.0,28.33,1111122 